Find Kosmos-2304

NORAD ID: 23446 Int'l Des: 1994-086 Owner: VKS Country: RU operational
LEOCIRCULARPOLAR

現在のビュー

3D地球を読み込み中...

About Kosmos-2304

Kosmos-2304 (NORAD 23446) is a satellite launched Dec 26, 1994 by VKS of RU. It operates in LEO, CIRCULAR, POLAR orbit with a mass of 225.00 kg.

次回通過

Passes for default location (London). Set your location on the main map for personalized predictions.

高度履歴

Loading altitude history...

軌道要素

1 23446U 94086F 26195.57950939 .00000013 00000-0 15356-4 0 9994
2 23446 82.5731 302.7229 0005296 111.5317 259.1679 12.62206208453148
Epoch: Jul 14, 2026 • Age: 5 hours

現在のステータス

高度 1435.9 km
遠地点 / 近地点 N/A
速度 7.14 km/s
衛星直下点 -47.32°S, 72.21°E
打ち上げ日 Dec 26, 1994
運用期間 31.5 years
タイプ other

技術仕様

分類 Payload
質量 225.00 kg
乾燥質量 225.00 kg
総質量 225.00 kg
長さ 1.60 m
直径 0.80 m
スパン 7.00 m
形状 Cyl + Ant
製造者 NPOPMR
バスタイプ Strela-3
フェーズステータス In Orbit
所有者/国 VKS/RU

Most Searched